Temp
-11 -11 -11 -11 -11 -11 -11 -11 -12 -12 -12 -12 -12 -12 -12 -12 -12 -13 -13 -12 -13 -13 -13 -13 -13 -13 -14 -14 -14 -14 -14 -14 -14 -14 -14 -14 -13 -13 -13 -13 -12 -12 -12
-11 -11 -11 -12 -12 -12 -11 -11 -12 -12 -12 -12 -12 -12 -12 -12 -12 -12 -12 -12 -12 -12 -13 -13 -13 -13 -13 -13 -13 -13 -14 -14 -14 -14 -14 -14 -14 -13 -13 -12 -12 -12 -12
-11 -11 -12 -12 -12 -12 -12 -11 -12 -12 -12 -12 -12 -12 -12 -12 -12 -12 -12 -12 -12 -12 -12 -13 -13 -13 -13 -13 -13 -13 -13 -13 -13 -13 -13 -13 -13 -13 -12 -12 -11 -12 -12
-11 -11 -12 -12 -11 -11 -11 -12 -12 -12 -12 -12 -12 -13 -12 -12 -12 -12 -12 -12 -12 -11 -11 -12 -12 -12 -12 -13 -13 -13 -13 -13 -13 -12 -13 -13 -12 -12 -12 -12 -12 -12 -12
-12 -12 -11 -11 -11 -11 -12 -12 -12 -12 -12 -12 -12 -12 -12 -12 -12 -12 -12 -12 -11 -12 -11 -11 -12 -12 -12 -12 -12 -12 -12 -12 -12 -12 -13 -12 -12 -12 -12 -12 -12 -12 -12
-11 -11 -11 -11 -12 -12 -12 -12 -12 -12 -12 -12 -12 -12 -12 -12 -12 -12 -12 -12 -11 -11 -11 -11 -12 -12 -12 -12 -12 -12 -12 -12 -12 -12 -12 -12 -12 -12 -12 -12 -12 -12 -12
-11 -11 -12 -12 -12 -13 -12 -12 -12 -12 -12 -12 -12 -12 -12 -12 -12 -12 -12 -12 -11 -12 -11 -11 -11 -11 -12 -12 -11 -11 -11 -11 -12 -12 -12 -12 -12 -12 -12 -12 -12 -12 -12
-11 -12 -12 -12 -12 -12 -12 -12 -12 -12 -12 -12 -12 -12 -12 -12 -12 -12 -12 -12 -11 -11 -12 -11 -11 -11 -11 -11 -12 -11 -11 -11 -11 -11 -12 -12 -12 -12 -12 -12 -13 -13 -13
-11 -12 -12 -12 -12 -12 -12 -12 -12 -12 -12 -12 -12 -12 -12 -12 -12 -12 -12 -12 -11 -11 -11 -11 -11 -11 -11 -11 -12 -12 -11 -11 -11 -11 -11 -11 -11 -12 -13 -13 -13 -13 -13
-11 -12 -12 -12 -12 -12 -12 -12 -12 -12 -12 -12 -12 -12 -12 -12 -11 -12 -12 -12 -11 -11 -11 -11 -11 -10 -11 -11 -11 -12 -11 -11 -12 -11 -11 -12 -12 -12 -13 -12 -12 -13 -13
-11 -11 -12 -12 -12 -12 -12 -12 -12 -12 -12 -12 -12 -12 -12 -12 -11 -11 -12 -11 -11 -11 -11 -11 -11 -10 -11 -11 -10 -11 -11 -11 -11 -11 -11 -12 -12 -12 -12 -13 -13 -13 -14
-12 -12 -12 -12 -12 -12 -12 -12 -12 -12 -12 -12 -12 -12 -12 -12 -12 -11 -11 -11 -11 -11 -11 -11 -11 -11 -11 -11 -11 -12 -12 -12 -12 -12 -12 -12 -12 -13 -13 -13 -13 -13 -13
-12 -12 -12 -12 -12 -13 -12 -13 -13 -13 -12 -12 -12 -12 -12 -12 -12 -11 -11 -11 -11 -11 -11 -11 -11 -11 -11 -11 -11 -12 -11 -12 -12 -12 -12 -12 -13 -13 -13 -13 -13 -13 -13
-12 -12 -12 -12 -12 -13 -13 -13 -13 -13 -13 -12 -12 -12 -12 -12 -12 -12 -12 -12 -12 -12 -12 -12 -12 -12 -12 -12 -12 -12 -12 -12 -12 -12 -13 -13 -13 -13 -13 -13 -13 -13 -13
-12 -12 -12 -12 -12 -13 -13 -12 -12 -13 -13 -12 -12 -12 -12 -12 -12 -12 -13 -13 -13 -13 -12 -12 -12 -12 -12 -12 -12 -12 -12 -12 -13 -13 -13 -13 -13 -13 -13 -13 -13 -13 -13
-12 -12 -12 -12 -12 -12 -12 -12 -12 -12 -12 -12 -13 -13 -13 -13 -13 -13 -12 -13 -13 -12 -12 -12 -12 -12 -12 -13 -13 -13 -13 -13 -13 -13 -13 -13 -13 -13 -13 -13 -14 -14 -14
-12 -12 -12 -12 -12 -12 -12 -12 -12 -12 -12 -12 -12 -12 -12 -12 -12 -13 -13 -13 -13 -13 -13 -13 -13 -13 -13 -13 -13 -13 -13 -13 -13 -13 -13 -13 -13 -13 -14 -14 -14 -14 -15
-12 -12 -12 -12 -12 -12 -12 -12 -12 -12 -12 -13 -13 -13 -13 -12 -12 -12 -12 -13 -13 -13 -13 -13 -13 -13 -13 -13 -13 -13 -13 -13 -13 -13 -14 -14 -14 -14 -14 -14 -14 -14 -14
-12 -12 -12 -12 -12 -12 -12 -12 -12 -12 -12 -13 -13 -13 -13 -13 -13 -13 -13 -13 -13 -13 -12 -12 -12 -13 -13 -13 -13 -13 -13 -13 -13 -13 -13 -13 -14 -14 -14 -14 -14 -14 -14
-12 -11 -11 -12 -12 -12 -12 -12 -12 -12 -12 -13 -13 -13 -13 -13 -13 -13 -13 -13 -13 -13 -13 -12 -12 -12 -13 -13 -13 -13 -13 -13 -13 -13 -13 -13 -13 -13 -13 -13 -13 -13 -13
-12 -11 -11 -11 -12 -12 -12 -12 -12 -12 -12 -12 -12 -13 -13 -13 -13 -13 -13 -13 -13 -13 -13 -13 -13 -13 -13 -13 -13 -13 -13 -13 -13 -13 -13 -13 -13 -13 -13 -13 -13 -13 -13
-11 -11 -11 -11 -11 -11 -12 -12 -12 -12 -12 -12 -12 -12 -12 -12 -12 -13 -13 -13 -13 -13 -13 -13 -13 -13 -13 -13 -13 -13 -13 -14 -13 -13 -13 -14 -13 -13 -13 -13 -13 -13 -13
-12 -12 -11 -12 -11 -11 -11 -11 -11 -12 -12 -12 -12 -12 -12 -12 -12 -12 -13 -13 -13 -13 -13 -13 -13 -13 -13 -13 -14 -14 -14 -14 -14 -14 -14 -14 -14 -14 -14 -14 -14 -14 -13
-13 -13 -13 -12 -12 -12 -12 -12 -11 -11 -11 -11 -11 -12 -12 -12 -12 -12 -13 -13 -13 -13 -13 -13 -13 -13 -13 -13 -13 -13 -14 -14 -14 -14 -13 -13 -13 -13 -14 -14 -14 -14 -14
-13 -13 -13 -13 -13 -12 -12 -12 -12 -12 -12 -12 -11 -12 -12 -12 -12 -12 -12 -12 -13 -13 -13 -13 -13 -13 -13 -13 -13 -13 -13 -13 -13 -13 -13 -13 -13 -13 -13 -14 -14 -14 -14
-13 -13 -13 -13 -13 -13 -12 -12 -12 -12 -12 -12 -12 -12 -12 -12 -12 -12 -13 -13 -13 -13 -13 -13 -13 -13 -13 -13 -13 -13 -13 -13 -13 -13 -13 -13 -13 -13 -13 -14 -14 -14 -14
Height
5725 5723 5722 5721 5719 5717 5715 5715 5714 5713 5712 5712 5711 5710 5709 5708 5705 5702 5699 5697 5695 5693 5692 5693 5694 5695 5697 5699 5700 5702 5704 5708 5712 5716 5720 5725 5730 5735 5740 5746 5750 5757 5761
5721 5720 5719 5717 5715 5713 5713 5713 5712 5711 5711 5711 5711 5709 5709 5707 5705 5703 5701 5700 5695 5695 5694 5693 5694 5695 5696 5697 5699 5702 5705 5708 5712 5716 5721 5726 5731 5735 5740 5746 5749 5755 5759
5719 5718 5716 5715 5714 5712 5712 5712 5711 5710 5710 5711 5710 5708 5709 5708 5706 5704 5702 5700 5697 5695 5695 5694 5695 5696 5697 5698 5701 5704 5706 5710 5714 5718 5723 5729 5733 5737 5741 5744 5748 5756 5760
5717 5715 5714 5713 5712 5711 5711 5710 5709 5709 5709 5710 5710 5709 5709 5709 5707 5705 5704 5703 5700 5698 5698 5697 5698 5699 5699 5700 5702 5705 5708 5711 5715 5721 5726 5729 5732 5736 5742 5746 5752 5757 5761
5714 5714 5712 5711 5710 5708 5709 5708 5708 5708 5708 5709 5710 5710 5710 5710 5708 5707 5706 5705 5704 5702 5701 5701 5702 5702 5702 5701 5701 5703 5706 5711 5716 5721 5726 5730 5734 5739 5744 5747 5752 5758 5763
5714 5713 5711 5709 5707 5707 5707 5707 5707 5707 5708 5709 5711 5711 5711 5711 5710 5709 5709 5708 5708 5707 5706 5706 5706 5706 5705 5704 5705 5706 5707 5712 5717 5722 5726 5731 5737 5742 5747 5751 5757 5762 5767
5714 5712 5710 5708 5707 5706 5705 5705 5706 5707 5707 5709 5711 5712 5713 5714 5714 5713 5712 5712 5712 5712 5712 5712 5712 5711 5711 5712 5713 5714 5715 5717 5720 5726 5732 5736 5742 5746 5751 5756 5760 5765 5769
5714 5712 5711 5709 5708 5706 5706 5706 5706 5707 5708 5709 5711 5713 5714 5715 5716 5716 5715 5714 5715 5716 5716 5718 5718 5718 5717 5718 5720 5723 5724 5725 5727 5732 5738 5743 5747 5752 5755 5759 5764 5766 5768
5714 5713 5712 5710 5708 5708 5707 5707 5707 5706 5707 5709 5710 5713 5715 5717 5717 5718 5718 5718 5719 5719 5720 5721 5723 5723 5724 5724 5727 5731 5733 5735 5737 5739 5742 5746 5750 5753 5757 5761 5764 5767 5770
5715 5714 5712 5712 5711 5710 5709 5708 5707 5706 5707 5708 5711 5713 5715 5718 5720 5720 5721 5722 5722 5723 5724 5725 5725 5726 5728 5730 5731 5735 5738 5740 5743 5745 5746 5750 5753 5757 5761 5764 5766 5770 5773
5716 5715 5714 5713 5713 5711 5710 5709 5708 5708 5707 5708 5710 5714 5716 5719 5721 5723 5724 5724 5725 5726 5727 5728 5729 5729 5731 5733 5735 5736 5741 5745 5747 5749 5752 5755 5759 5762 5763 5766 5770 5773 5776
5718 5716 5715 5715 5714 5714 5713 5710 5710 5709 5708 5709 5711 5714 5717 5721 5723 5725 5726 5728 5728 5729 5730 5732 5733 5734 5735 5737 5740 5741 5743 5746 5750 5752 5756 5758 5761 5764 5766 5770 5772 5775 5777
5719 5718 5717 5717 5717 5718 5717 5714 5713 5712 5712 5712 5713 5716 5719 5722 5725 5727 5729 5730 5731 5733 5734 5736 5739 5741 5742 5743 5745 5747 5749 5751 5753 5756 5759 5762 5764 5767 5770 5773 5775 5776 5776
5720 5720 5719 5719 5718 5720 5721 5720 5719 5718 5715 5714 5716 5718 5721 5725 5728 5730 5731 5733 5734 5738 5740 5741 5743 5746 5748 5750 5752 5753 5754 5756 5758 5760 5763 5766 5768 5770 5771 5771 5772 5772 5773
5721 5722 5722 5721 5722 5722 5723 5723 5723 5723 5721 5719 5721 5723 5725 5728 5731 5733 5735 5736 5739 5741 5744 5746 5748 5750 5752 5753 5755 5757 5759 5759 5761 5763 5765 5766 5767 5769 5770 5771 5770 5770 5770
5722 5723 5724 5724 5725 5726 5726 5727 5728 5729 5729 5728 5728 5728 5730 5732 5734 5737 5739 5741 5743 5746 5748 5749 5751 5752 5753 5755 5757 5758 5759 5760 5762 5763 5764 5765 5767 5768 5768 5768 5768 5768 5767
5722 5724 5725 5726 5728 5728 5729 5731 5733 5734 5734 5734 5735 5736 5736 5737 5740 5741 5743 5745 5747 5748 5750 5751 5753 5754 5755 5757 5759 5760 5761 5761 5762 5764 5764 5766 5766 5767 5767 5767 5767 5765 5764
5722 5724 5725 5727 5729 5731 5732 5733 5736 5738 5738 5739 5739 5740 5741 5743 5744 5746 5747 5749 5750 5752 5753 5754 5755 5756 5757 5758 5760 5761 5762 5763 5764 5765 5764 5764 5763 5765 5764 5764 5764 5765 5764
5721 5723 5725 5727 5729 5731 5733 5735 5736 5738 5740 5742 5742 5744 5745 5746 5748 5749 5750 5751 5752 5753 5754 5755 5756 5756 5758 5758 5759 5760 5761 5761 5762 5762 5762 5764 5763 5762 5762 5760 5759 5760 5761
5719 5721 5723 5726 5728 5730 5732 5734 5736 5738 5740 5741 5743 5744 5746 5747 5749 5750 5751 5752 5753 5753 5754 5755 5755 5756 5757 5758 5759 5760 5760 5760 5760 5761 5761 5760 5759 5759 5759 5759 5758 5757 5754
5715 5718 5720 5723 5726 5728 5730 5732 5734 5736 5738 5740 5741 5743 5744 5746 5748 5749 5751 5752 5752 5753 5753 5754 5754 5755 5756 5757 5758 5758 5758 5758 5757 5756 5755 5755 5755 5755 5754 5753 5753 5751 5749
5713 5715 5718 5720 5722 5724 5727 5729 5731 5733 5735 5737 5738 5739 5741 5743 5745 5746 5747 5749 5750 5751 5752 5752 5752 5753 5753 5753 5754 5754 5754 5754 5753 5753 5752 5751 5750 5749 5749 5748 5747 5745 5745
5709 5712 5714 5716 5719 5721 5723 5725 5727 5728 5731 5733 5734 5734 5736 5739 5740 5742 5743 5744 5746 5747 5749 5749 5750 5750 5750 5750 5750 5750 5750 5748 5747 5747 5746 5745 5746 5745 5743 5741 5739 5738 5736
5702 5705 5708 5710 5713 5715 5718 5719 5721 5724 5726 5727 5730 5732 5731 5733 5735 5736 5737 5739 5741 5742 5743 5744 5745 5745 5745 5745 5745 5745 5744 5743 5743 5742 5740 5739 5739 5738 5736 5734 5732 5731 5730
5696 5698 5700 5703 5704 5707 5710 5712 5714 5716 5718 5721 5723 5725 5726 5727 5728 5729 5730 5731 5733 5734 5735 5736 5737 5737 5738 5738 5739 5738 5737 5736 5735 5733 5732 5731 5732 5731 5729 5728 5726 5724 5722
5688 5689 5692 5694 5698 5699 5701 5704 5706 5708 5710 5713 5714 5717 5719 5720 5721 5722 5723 5724 5725 5726 5726 5726 5727 5727 5728 5728 5729 5729 5728 5728 5726 5724 5723 5722 5723 5722 5720 5720 5718 5715 5712
Wind_Speed
13 14 16 17 20 15 14 12 10 9 7 7 3 4 5 7 12 18 8 6 5 2 1 2 2 3 6 9 8 8 14 16 15 18 21 23 26 29 25 30 23 23 17
13 14 16 14 13 11 12 11 9 8 6 3 2 4 5 8 14 8 5 12 8 2 1 3 4 3 4 11 10 10 13 15 16 18 21 23 25 25 23 31 13 13 10
13 14 14 11 10 9 10 9 8 7 5 3 1 4 5 7 10 10 8 12 11 10 7 6 3 5 6 9 8 14 14 15 18 18 21 24 26 25 24 27 16 8 15
13 12 11 8 9 8 10 8 6 5 5 5 3 3 5 7 9 8 4 9 9 8 9 10 11 10 11 11 12 12 15 16 18 21 21 29 20 18 17 18 21 17 15
9 7 8 9 9 8 9 6 4 3 3 6 4 3 6 9 10 10 9 10 13 13 16 16 18 16 15 10 11 15 19 19 19 21 20 19 18 16 12 22 25 23 24
6 8 9 9 7 5 6 4 3 2 2 7 6 4 5 8 11 8 11 13 16 20 19 21 20 20 23 21 21 22 24 22 22 20 22 20 24 21 18 16 24 22 18
7 8 5 5 6 5 2 1 2 1 2 6 7 4 3 6 12 12 12 11 13 15 18 19 23 24 24 26 27 25 31 32 33 30 33 32 27 27 26 25 24 20 14
6 5 6 6 8 9 6 3 2 1 3 5 7 7 5 6 11 12 12 14 12 18 20 18 20 23 24 26 28 28 36 38 40 39 34 31 29 28 27 22 19 12 16
4 7 9 10 9 10 9 3 1 2 6 6 6 8 7 8 11 13 15 16 17 16 16 17 17 16 17 22 24 27 31 30 33 30 27 23 21 22 22 17 12 18 17
1 5 8 10 12 10 8 7 7 3 2 8 7 9 10 11 11 12 14 16 15 14 12 12 13 15 17 21 26 25 26 24 24 24 24 25 22 21 20 21 20 16 12
0 3 5 9 12 14 10 7 7 7 5 7 10 11 12 13 11 11 13 13 13 14 17 18 19 18 20 22 22 25 24 23 24 28 27 27 25 23 21 20 16 10 7
1 3 4 8 11 14 15 11 7 8 9 9 9 11 13 14 12 11 11 10 10 13 14 18 21 24 26 26 27 27 28 29 27 25 21 21 19 18 16 12 12 6 5
1 1 3 7 8 11 15 20 19 14 9 8 11 14 15 14 12 9 8 12 15 15 15 20 21 21 24 24 26 27 25 25 23 19 16 15 15 14 12 10 8 6 4
0 2 2 5 7 8 11 16 20 19 16 11 13 16 15 13 11 10 13 16 19 19 21 23 22 22 23 23 21 20 18 18 17 15 13 11 10 11 11 9 7 5 5
2 2 3 5 6 7 7 13 17 20 26 19 17 17 16 15 13 14 16 17 21 23 22 21 20 19 17 15 14 13 12 13 11 9 9 9 11 11 8 6 4 4 6
6 3 3 5 6 7 9 12 18 20 22 25 28 27 25 24 23 21 20 21 19 17 16 15 14 13 12 12 11 12 11 11 11 8 8 8 9 8 5 2 4 8 9
5 6 5 6 6 8 10 13 16 17 18 19 18 19 19 20 18 18 18 16 16 16 14 13 12 11 12 11 13 13 14 13 11 9 9 8 5 4 1 3 5 7 10
6 6 7 6 8 9 10 11 13 12 13 13 14 15 15 14 13 13 13 13 12 11 10 10 9 9 10 10 11 8 8 7 7 6 3 2 1 3 4 3 5 5 9
9 8 7 9 10 11 11 11 11 10 8 7 7 9 9 10 10 9 8 7 6 5 5 4 3 4 3 8 8 5 3 0 1 1 3 2 3 4 5 7 10 11 11
12 12 10 8 9 10 12 13 13 12 12 10 8 6 5 4 4 4 3 2 2 1 2 2 3 3 2 4 7 6 1 6 8 9 8 8 9 8 7 8 11 14 18
12 12 12 12 10 10 12 13 14 15 15 15 13 12 11 9 7 5 5 5 5 5 4 4 5 7 8 8 9 10 11 11 11 13 14 13 13 13 14 16 18 20 21
15 14 13 12 11 11 12 13 14 15 16 16 18 18 16 14 13 12 11 10 10 10 9 8 8 9 10 11 11 11 13 14 16 16 17 17 18 19 18 19 22 24 22
19 18 16 16 15 14 13 12 13 15 16 18 19 21 18 18 18 16 16 16 15 14 13 12 13 15 16 16 16 16 17 20 22 22 24 24 21 21 23 24 26 26 26
23 21 18 20 19 18 18 17 16 15 15 16 16 18 22 21 20 21 21 19 17 17 16 16 16 18 18 20 21 22 24 24 24 25 27 27 25 23 25 27 30 29 29
26 24 25 24 25 24 23 20 19 19 20 19 18 17 19 20 20 20 21 21 21 20 19 18 18 19 20 22 24 24 25 25 26 27 28 29 27 26 26 28 31 33 32
34 34 31 31 30 29 29 26 22 22 21 20 21 21 21 21 22 22 22 22 22 22 22 22 22 22 23 23 24 26 28 29 30 32 34 33 32 31 31 31 32 35 36
Wind_Direction
294 296 300 299 301 298 302 305 301 295 285 290 38 37 8 10 4 1 11 328 357 45 248 71 110 136 157 153 174 178 178 176 176 182 180 181 185 184 186 176 188 169 202
301 301 300 304 302 307 307 303 304 294 274 267 81 71 15 27 6 23 19 12 24 242 314 199 184 183 182 156 147 147 167 168 171 176 178 181 185 175 175 181 183 190 176
301 296 306 302 316 308 294 287 310 296 259 162 133 75 44 44 32 33 22 19 47 67 92 96 128 103 122 144 161 160 171 164 165 173 177 169 171 183 185 173 190 189 149
295 306 302 293 322 316 285 294 308 302 246 165 185 97 84 57 37 14 33 24 46 77 89 74 103 110 119 128 160 180 179 172 178 179 189 183 183 154 162 193 193 176 180
326 315 307 306 309 301 284 287 289 308 231 182 184 85 87 58 44 30 53 63 76 84 93 97 94 98 81 88 135 171 188 183 179 180 192 183 177 159 151 142 154 159 152
332 318 306 313 318 304 302 274 259 310 179 173 172 90 105 66 41 72 68 98 94 88 104 103 93 94 96 97 108 110 127 144 165 167 155 162 167 171 153 151 147 144 145
328 322 351 5 1 351 354 258 246 247 159 167 174 153 134 86 65 83 75 116 102 99 104 105 97 97 96 111 108 103 118 121 126 126 124 126 133 129 131 136 142 148 137
352 7 37 49 53 45 44 57 142 199 172 176 169 171 144 116 90 94 80 100 117 117 106 100 103 98 95 109 113 110 120 115 117 116 120 121 127 136 140 133 138 131 123
14 47 53 50 50 44 39 40 33 13 195 170 168 164 164 139 106 88 98 101 108 114 118 115 107 116 111 109 114 121 123 111 112 104 106 118 131 135 139 137 130 128 124
18 52 47 52 53 58 57 45 41 49 188 196 176 162 168 156 120 99 106 100 110 99 114 129 113 114 126 120 125 120 129 122 112 107 107 112 121 124 128 123 121 127 131
330 66 44 52 51 50 55 58 64 62 82 137 155 160 167 156 134 115 112 96 108 107 112 117 117 121 121 126 128 130 128 127 115 113 112 113 115 116 115 122 125 119 115
221 101 72 62 65 60 45 65 83 71 77 125 137 152 158 155 149 136 121 111 126 127 128 122 122 121 123 125 125 124 127 126 121 116 115 116 116 114 117 126 143 91 91
162 118 97 76 77 69 57 70 73 73 81 126 129 140 150 148 145 134 121 117 115 130 127 125 117 123 126 126 126 125 127 125 122 119 116 111 111 112 113 114 118 108 77
86 106 101 88 88 91 78 81 81 77 71 113 128 128 141 139 127 111 116 113 109 127 128 123 121 119 119 122 121 123 122 118 119 121 119 117 112 101 97 93 78 52 9
151 95 102 103 110 115 103 91 93 87 82 96 110 127 115 122 122 120 114 110 123 118 118 118 119 121 121 118 115 115 117 115 114 118 121 116 107 102 102 90 57 2 325
161 144 118 124 113 110 113 110 110 99 89 90 95 106 107 107 111 111 108 111 117 116 113 113 113 115 118 118 119 116 112 107 104 104 102 100 101 105 109 105 325 326 327
176 165 163 149 140 131 128 128 125 113 103 96 95 99 103 108 110 112 112 111 111 109 108 110 111 113 117 119 124 110 94 89 95 99 96 99 115 120 110 302 302 306 328
172 157 171 170 167 161 153 144 141 132 116 100 95 101 104 106 112 115 117 120 117 107 107 108 110 134 141 137 126 117 100 88 111 138 121 68 336 349 325 312 316 314 327
196 185 179 182 186 186 183 177 168 163 157 137 123 118 113 110 110 114 116 115 111 104 106 117 90 80 144 182 179 173 159 140 27 312 290 262 258 291 317 314 314 319 322
205 209 205 202 199 200 201 199 201 193 189 194 190 190 187 181 175 156 146 147 150 176 219 215 197 187 169 175 188 193 275 331 332 332 321 313 312 308 312 308 309 314 321
211 215 212 212 209 210 210 214 213 216 214 220 223 224 230 238 244 236 228 244 252 248 249 261 247 222 214 220 237 257 273 287 296 309 313 310 305 305 309 312 314 314 319
213 214 220 221 219 215 220 222 225 223 228 230 235 238 241 246 251 254 257 257 262 273 277 275 265 253 246 248 250 255 264 272 281 289 291 290 291 294 297 301 303 304 311
237 234 228 227 230 233 235 236 232 230 231 232 239 250 250 247 251 254 261 270 277 280 281 279 280 275 260 253 258 260 263 269 273 278 282 282 284 286 292 297 300 304 311
235 237 239 243 237 235 236 238 241 242 241 243 236 230 249 255 252 256 259 260 265 272 278 278 274 270 269 268 270 276 281 285 284 282 283 287 291 290 291 296 299 307 309
239 239 237 236 245 247 242 243 247 248 246 244 241 239 237 246 251 249 249 255 262 267 266 266 266 265 267 267 268 270 270 276 279 280 283 285 287 287 287 292 297 302 302
240 243 242 239 238 243 248 247 246 253 256 253 250 242 240 240 242 243 243 244 246 250 257 264 269 272 272 272 273 272 272 271 271 274 276 279 282 284 286 289 299 300 298